ASL80A LYBE-LOWW

Flight info

Callsign ASL80A
Flight time 1h 6m
Altitude 20000
Route TISAK M173 PARAK DCT BALUX DCT TORNO DCT NATEX NATEX2W
Aircraft AT76/M-SDFGIRY/S

Departure

Time 2026-04-22 16:29
Airport Belgrade Nikola Tesla Airport (LYBE)

Arrival

Time 2026-04-22 17:35
Airport Vienna International Airport (LOWW)
Time Latitude Longitude Altitude Speed Heading
2026-04-22 15:51 44.81953 20.29618 303 ft 0 kts 122°
2026-04-22 16:21 44.81959 20.29604 306 ft 3 kts 122°
2026-04-22 16:21 44.81973 20.29573 303 ft 4 kts 122°
2026-04-22 16:21 44.81982 20.29543 303 ft 3 kts 40°
2026-04-22 16:22 44.81987 20.29546 303 ft 2 kts 32°
2026-04-22 16:22 44.82012 20.29568 304 ft 6 kts 32°
2026-04-22 16:22 44.82053 20.29604 303 ft 8 kts 33°
2026-04-22 16:23 44.82025 20.29794 303 ft 17 kts 122°
2026-04-22 16:23 44.81971 20.29917 303 ft 13 kts 122°
2026-04-22 16:23 44.81916 20.30040 304 ft 15 kts 122°
2026-04-22 16:24 44.81858 20.30170 303 ft 16 kts 122°
2026-04-22 16:24 44.81741 20.30435 304 ft 16 kts 122°
2026-04-22 16:24 44.81680 20.30571 306 ft 17 kts 122°
2026-04-22 16:25 44.81619 20.30709 305 ft 17 kts 122°
2026-04-22 16:25 44.81492 20.30993 303 ft 17 kts 121°
2026-04-22 16:25 44.81428 20.31138 302 ft 18 kts 122°
2026-04-22 16:26 44.81364 20.31283 302 ft 17 kts 121°
2026-04-22 16:26 44.81301 20.31425 303 ft 17 kts 121°
2026-04-22 16:26 44.81239 20.31566 304 ft 17 kts 122°
2026-04-22 16:26 44.81179 20.31703 303 ft 17 kts 122°
2026-04-22 16:27 44.81116 20.31844 304 ft 17 kts 122°
2026-04-22 16:27 44.81054 20.31985 305 ft 17 kts 122°
2026-04-22 16:27 44.80993 20.32131 303 ft 17 kts 109°
2026-04-22 16:27 44.81028 20.32263 303 ft 14 kts 39°
2026-04-22 16:28 44.81138 20.32309 305 ft 14 kts
2026-04-22 16:28 44.81220 20.32302 304 ft 9 kts 331°
2026-04-22 16:28 44.81253 20.32241 304 ft 9 kts 302°
2026-04-22 16:28 44.81414 20.31880 305 ft 75 kts 302°
2026-04-22 16:29 44.81785 20.31040 368 ft 118 kts 302°
2026-04-22 16:29 44.82212 20.30078 941 ft 116 kts 303°
2026-04-22 16:29 44.82633 20.29085 1520 ft 122 kts 304°
2026-04-22 16:29 44.83087 20.28135 2184 ft 115 kts 314°
2026-04-22 16:30 44.83475 20.27627 2528 ft 115 kts 327°
2026-04-22 16:30 44.84497 20.26786 2770 ft 142 kts 335°
2026-04-22 16:30 44.85441 20.26075 2956 ft 164 kts 333°
2026-04-22 16:30 44.86449 20.25294 3359 ft 167 kts 333°
2026-04-22 16:31 44.87462 20.24472 3830 ft 169 kts 331°
2026-04-22 16:31 44.88470 20.23610 4279 ft 170 kts 330°
2026-04-22 16:31 44.89486 20.22721 4730 ft 171 kts 330°
2026-04-22 16:31 44.90484 20.21831 5194 ft 172 kts 330°
2026-04-22 16:32 44.91501 20.20922 5626 ft 173 kts 329°
2026-04-22 16:32 44.92522 20.20008 6090 ft 174 kts 329°
2026-04-22 16:32 44.93546 20.19090 6524 ft 175 kts 329°
2026-04-22 16:32 44.94576 20.18165 6922 ft 176 kts 329°
2026-04-22 16:33 44.95611 20.17232 7315 ft 177 kts 329°
2026-04-22 16:33 44.96650 20.16297 7720 ft 177 kts 328°
2026-04-22 16:33 44.97682 20.15366 8124 ft 178 kts 328°
2026-04-22 16:33 44.98719 20.14392 8527 ft 179 kts 325°
2026-04-22 16:34 44.99719 20.13336 8933 ft 180 kts 323°
2026-04-22 16:34 45.00711 20.12250 9343 ft 180 kts 323°
2026-04-22 16:34 45.01699 20.11184 9757 ft 181 kts 323°
2026-04-22 16:34 45.02710 20.10100 10151 ft 182 kts 323°
2026-04-22 16:35 45.03724 20.09016 10501 ft 183 kts 323°
2026-04-22 16:35 45.04747 20.07925 10851 ft 184 kts 323°
2026-04-22 16:35 45.05766 20.06839 11198 ft 186 kts 322°
2026-04-22 16:35 45.06806 20.05732 11550 ft 187 kts 322°
2026-04-22 16:36 45.07848 20.04621 11908 ft 188 kts 322°
2026-04-22 16:36 45.08898 20.03498 12246 ft 189 kts 322°
2026-04-22 16:36 45.09954 20.02366 12582 ft 190 kts 322°
2026-04-22 16:36 45.11003 20.01241 12914 ft 192 kts 322°
2026-04-22 16:37 45.12071 20.00102 13254 ft 192 kts 322°
2026-04-22 16:37 45.13148 19.98959 13587 ft 194 kts 322°
2026-04-22 16:37 45.14215 19.97817 13895 ft 195 kts 322°
2026-04-22 16:37 45.15304 19.96652 14192 ft 196 kts 321°
2026-04-22 16:38 45.16394 19.95488 14478 ft 196 kts 321°
2026-04-22 16:38 45.17477 19.94329 14771 ft 197 kts 321°
2026-04-22 16:38 45.18574 19.93154 15063 ft 198 kts 322°
2026-04-22 16:38 45.19678 19.91969 15346 ft 199 kts 322°
2026-04-22 16:39 45.20784 19.90785 15639 ft 199 kts 321°
2026-04-22 16:39 45.21892 19.89597 15909 ft 199 kts 321°
2026-04-22 16:39 45.23002 19.88402 16174 ft 200 kts 322°
2026-04-22 16:39 45.24104 19.87220 16430 ft 201 kts 322°
2026-04-22 16:40 45.25226 19.86016 16685 ft 202 kts 322°
2026-04-22 16:40 45.26347 19.84808 16949 ft 202 kts 321°
2026-04-22 16:40 45.28224 19.82790 17381 ft 204 kts 322°
2026-04-22 16:41 45.29726 19.81175 17716 ft 205 kts 321°
2026-04-22 16:41 45.30495 19.80349 17881 ft 205 kts 322°
2026-04-22 16:41 45.31632 19.79119 18102 ft 206 kts 322°
2026-04-22 16:41 45.32779 19.77878 18333 ft 207 kts 322°
2026-04-22 16:42 45.33911 19.76658 18541 ft 207 kts 321°
2026-04-22 16:42 45.35064 19.75416 18730 ft 207 kts 321°
2026-04-22 16:42 45.36215 19.74174 18934 ft 207 kts 321°
2026-04-22 16:42 45.37366 19.72923 19154 ft 207 kts 321°
2026-04-22 16:43 45.38501 19.71696 19358 ft 207 kts 321°
2026-04-22 16:43 45.39654 19.70457 19565 ft 207 kts 320°
2026-04-22 16:43 45.40805 19.69214 19754 ft 207 kts 320°
2026-04-22 16:43 45.41952 19.67966 19944 ft 207 kts 320°
2026-04-22 16:44 45.43095 19.66724 20046 ft 211 kts 320°
2026-04-22 16:44 45.44281 19.65440 20096 ft 216 kts 320°
2026-04-22 16:44 45.45498 19.64117 20114 ft 222 kts 320°
2026-04-22 16:44 45.46747 19.62772 20127 ft 227 kts 320°
2026-04-22 16:45 45.48002 19.61415 20136 ft 231 kts 320°
2026-04-22 16:45 45.49294 19.60011 20137 ft 235 kts 320°
2026-04-22 16:45 45.50606 19.58586 20138 ft 238 kts 320°
2026-04-22 16:45 45.51932 19.57144 20135 ft 240 kts 320°
2026-04-22 16:46 45.53256 19.55703 20138 ft 243 kts 320°
2026-04-22 16:46 45.54605 19.54233 20138 ft 244 kts 320°
2026-04-22 16:46 45.55963 19.52755 20138 ft 246 kts 320°
2026-04-22 16:46 45.57328 19.51267 20136 ft 247 kts 320°
2026-04-22 16:47 45.58678 19.49792 20138 ft 248 kts 320°
2026-04-22 16:47 45.60053 19.48293 20136 ft 248 kts 320°
2026-04-22 16:47 45.61434 19.46786 20138 ft 249 kts 320°
2026-04-22 16:47 45.62816 19.45272 20136 ft 250 kts 321°
2026-04-22 16:48 45.64178 19.43783 20141 ft 250 kts 321°
2026-04-22 16:48 45.65566 19.42262 20139 ft 250 kts 321°
2026-04-22 16:48 45.66954 19.40743 20141 ft 251 kts 321°
2026-04-22 16:48 45.68339 19.39225 20142 ft 251 kts 321°
2026-04-22 16:49 45.69713 19.37718 20138 ft 252 kts 321°
2026-04-22 16:49 45.71107 19.36189 20139 ft 252 kts 321°
2026-04-22 16:49 45.72499 19.34661 20136 ft 252 kts 321°
2026-04-22 16:49 45.73896 19.33129 20138 ft 253 kts 321°
2026-04-22 16:50 45.75291 19.31592 20136 ft 253 kts 321°
2026-04-22 16:50 45.76671 19.30075 20139 ft 253 kts 321°
2026-04-22 16:50 45.78067 19.28538 20139 ft 253 kts 321°
2026-04-22 16:50 45.79469 19.26992 20139 ft 253 kts 321°
2026-04-22 16:51 45.80868 19.25453 20140 ft 253 kts 321°
2026-04-22 16:51 45.82270 19.23904 20143 ft 254 kts 321°
2026-04-22 16:51 45.83653 19.22378 20141 ft 254 kts 321°
2026-04-22 16:51 45.85052 19.20834 20139 ft 254 kts 321°
2026-04-22 16:52 45.86453 19.19288 20142 ft 254 kts 321°
2026-04-22 16:52 45.87857 19.17736 20140 ft 254 kts 321°
2026-04-22 16:52 45.89257 19.16182 20143 ft 255 kts 321°
2026-04-22 16:52 45.90664 19.14625 20141 ft 255 kts 321°
2026-04-22 16:53 45.92076 19.13064 20135 ft 255 kts 321°
2026-04-22 16:53 45.93479 19.11505 20138 ft 255 kts 321°
2026-04-22 16:53 45.94868 19.09964 20138 ft 255 kts 321°
2026-04-22 16:53 45.96277 19.08402 20138 ft 255 kts 321°
2026-04-22 16:54 45.97688 19.06836 20143 ft 255 kts 321°
2026-04-22 16:54 45.99096 19.05267 20141 ft 256 kts 321°
2026-04-22 16:54 46.00492 19.03713 20142 ft 256 kts 321°
2026-04-22 16:54 46.01909 19.02139 20139 ft 256 kts 321°
2026-04-22 16:55 46.03323 19.00566 20136 ft 256 kts 321°
2026-04-22 16:55 46.04735 18.98989 20146 ft 257 kts 321°
2026-04-22 16:55 46.06133 18.97433 20133 ft 257 kts 321°
2026-04-22 16:55 46.07544 18.95855 20141 ft 257 kts 321°
2026-04-22 16:56 46.08962 18.94271 20146 ft 257 kts 321°
2026-04-22 16:56 46.10379 18.92688 20142 ft 257 kts 321°
2026-04-22 16:56 46.11797 18.91103 20134 ft 258 kts 321°
2026-04-22 16:56 46.13216 18.89517 20136 ft 258 kts 321°
2026-04-22 16:57 46.14617 18.87946 20139 ft 257 kts 321°
2026-04-22 16:57 46.16033 18.86362 20137 ft 258 kts 321°
2026-04-22 16:57 46.17455 18.84770 20142 ft 258 kts 321°
2026-04-22 16:57 46.18870 18.83176 20145 ft 258 kts 321°
2026-04-22 16:58 46.19808 18.82123 20137 ft 258 kts 321°
2026-04-22 16:58 46.21686 18.80014 20142 ft 258 kts 321°
2026-04-22 16:58 46.23105 18.78423 20143 ft 258 kts 321°
2026-04-22 16:58 46.24520 18.76827 20135 ft 258 kts 321°
2026-04-22 16:59 46.25934 18.75237 20138 ft 258 kts 321°
2026-04-22 16:59 46.27350 18.73641 20138 ft 257 kts 321°
2026-04-22 16:59 46.28762 18.72050 20140 ft 257 kts 321°
2026-04-22 16:59 46.30175 18.70459 20137 ft 257 kts 321°
2026-04-22 17:00 46.31570 18.68883 20142 ft 257 kts 321°
2026-04-22 17:00 46.34398 18.65686 20143 ft 257 kts 321°
2026-04-22 17:00 46.35813 18.64087 20138 ft 257 kts 321°
2026-04-22 17:01 46.37224 18.62490 20145 ft 258 kts 321°
2026-04-22 17:01 46.38624 18.60907 20145 ft 258 kts 321°
2026-04-22 17:01 46.40036 18.59302 20145 ft 257 kts 321°
2026-04-22 17:01 46.41451 18.57700 20142 ft 257 kts 321°
2026-04-22 17:02 46.42864 18.56097 20143 ft 257 kts 321°
2026-04-22 17:02 46.44276 18.54494 20143 ft 257 kts 321°
2026-04-22 17:02 46.45669 18.52910 20140 ft 257 kts 321°
2026-04-22 17:02 46.47084 18.51302 20144 ft 257 kts 321°
2026-04-22 17:03 46.48492 18.49698 20140 ft 257 kts 320°
2026-04-22 17:03 46.49905 18.48088 20147 ft 257 kts 320°
2026-04-22 17:03 46.51299 18.46502 20143 ft 257 kts 320°
2026-04-22 17:03 46.52710 18.44892 20145 ft 257 kts 321°
2026-04-22 17:04 46.54121 18.43282 20143 ft 257 kts 320°
2026-04-22 17:04 46.55534 18.41670 20139 ft 257 kts 321°
2026-04-22 17:04 46.56926 18.40077 20147 ft 257 kts 320°
2026-04-22 17:04 46.58334 18.38467 20148 ft 257 kts 320°
2026-04-22 17:05 46.59738 18.36859 20144 ft 257 kts 320°
2026-04-22 17:05 46.61146 18.35249 20144 ft 257 kts 320°
2026-04-22 17:05 46.62552 18.33638 20150 ft 257 kts 320°
2026-04-22 17:05 46.63941 18.32048 20140 ft 257 kts 320°
2026-04-22 17:06 46.65350 18.30431 20145 ft 257 kts 320°
2026-04-22 17:06 46.66756 18.28819 20149 ft 257 kts 320°
2026-04-22 17:06 46.68156 18.27206 20147 ft 256 kts 320°
2026-04-22 17:06 46.69560 18.25594 20142 ft 256 kts 320°
2026-04-22 17:07 46.70942 18.24003 20145 ft 256 kts 320°
2026-04-22 17:07 46.72339 18.22396 20145 ft 256 kts 320°
2026-04-22 17:07 46.73743 18.20779 20140 ft 255 kts 320°
2026-04-22 17:07 46.75123 18.19187 20145 ft 255 kts 320°
2026-04-22 17:08 46.76519 18.17578 20147 ft 255 kts 320°
2026-04-22 17:08 46.77921 18.15960 20145 ft 255 kts 320°
2026-04-22 17:08 46.79299 18.14370 20150 ft 256 kts 320°
2026-04-22 17:08 46.80696 18.12756 20150 ft 256 kts 320°
2026-04-22 17:09 46.82090 18.11139 20143 ft 255 kts 321°
2026-04-22 17:09 46.83482 18.09526 20148 ft 255 kts 321°
2026-04-22 17:09 46.84406 18.08459 20149 ft 255 kts 321°
2026-04-22 17:09 46.86257 18.06314 20141 ft 255 kts 321°
2026-04-22 17:10 46.87652 18.04698 20146 ft 255 kts 321°
2026-04-22 17:10 46.89049 18.03077 20148 ft 255 kts 321°
2026-04-22 17:10 46.90442 18.01458 20151 ft 255 kts 321°
2026-04-22 17:10 46.91836 17.99838 20145 ft 255 kts 321°
2026-04-22 17:11 46.93225 17.98221 20144 ft 255 kts 321°
2026-04-22 17:11 46.94600 17.96620 20149 ft 255 kts 321°
2026-04-22 17:11 46.95991 17.95004 20150 ft 255 kts 321°
2026-04-22 17:11 46.97379 17.93385 20153 ft 255 kts 321°
2026-04-22 17:12 46.98768 17.91764 20156 ft 255 kts 321°
2026-04-22 17:12 47.00142 17.90155 20153 ft 255 kts 321°
2026-04-22 17:12 47.01528 17.88523 20150 ft 255 kts 320°
2026-04-22 17:12 47.02910 17.86876 20155 ft 255 kts 320°
2026-04-22 17:13 47.04272 17.85249 20151 ft 255 kts 320°
2026-04-22 17:13 47.05655 17.83615 20153 ft 255 kts 321°
2026-04-22 17:13 47.07045 17.81984 20158 ft 255 kts 321°
2026-04-22 17:13 47.08415 17.80377 20152 ft 255 kts 321°
2026-04-22 17:14 47.09808 17.78740 20151 ft 255 kts 321°
2026-04-22 17:14 47.11193 17.77119 20157 ft 255 kts 321°
2026-04-22 17:14 47.12581 17.75488 20158 ft 255 kts 321°
2026-04-22 17:14 47.13955 17.73873 20154 ft 255 kts 321°
2026-04-22 17:15 47.14876 17.72788 20155 ft 255 kts 321°
2026-04-22 17:15 47.16734 17.70609 20157 ft 255 kts 321°
2026-04-22 17:15 47.18120 17.68973 20156 ft 255 kts 321°
2026-04-22 17:15 47.19509 17.67338 20155 ft 256 kts 321°
2026-04-22 17:16 47.20903 17.65691 20089 ft 258 kts 321°
2026-04-22 17:16 47.22303 17.64044 19976 ft 263 kts 321°
2026-04-22 17:16 47.23745 17.62341 19849 ft 266 kts 321°
2026-04-22 17:16 47.25200 17.60620 19718 ft 269 kts 321°
2026-04-22 17:17 47.26652 17.58903 19599 ft 271 kts 321°
2026-04-22 17:17 47.28133 17.57154 19475 ft 273 kts 321°
2026-04-22 17:17 47.29627 17.55384 19333 ft 276 kts 321°
2026-04-22 17:17 47.31125 17.53604 18969 ft 281 kts 321°
2026-04-22 17:18 47.32659 17.51788 18604 ft 283 kts 321°
2026-04-22 17:18 47.34202 17.49955 18202 ft 285 kts 321°
2026-04-22 17:18 47.35627 17.47941 17790 ft 283 kts 305°
2026-04-22 17:18 47.36604 17.45420 17350 ft 285 kts 299°
2026-04-22 17:19 47.38894 17.40780 16488 ft 282 kts 307°
2026-04-22 17:19 47.41056 17.35860 15656 ft 288 kts 302°
2026-04-22 17:20 47.43023 17.30688 14856 ft 291 kts 301°
2026-04-22 17:20 47.45066 17.25487 14105 ft 291 kts 303°
2026-04-22 17:21 47.46117 17.22958 13680 ft 286 kts 303°
2026-04-22 17:21 47.48195 17.18044 12808 ft 280 kts 304°
2026-04-22 17:22 47.50300 17.13276 11992 ft 273 kts 306°
2026-04-22 17:22 47.51375 17.10974 11629 ft 270 kts 307°
2026-04-22 17:22 47.53533 17.06507 10922 ft 266 kts 308°
2026-04-22 17:23 47.54638 17.04317 10574 ft 264 kts 309°
2026-04-22 17:23 47.56864 17.00013 9850 ft 261 kts 310°
2026-04-22 17:23 47.57974 16.97872 9462 ft 260 kts 310°
2026-04-22 17:24 47.59042 16.95749 9099 ft 259 kts 309°
2026-04-22 17:24 47.60093 16.93578 8727 ft 259 kts 308°
2026-04-22 17:24 47.61119 16.91380 8365 ft 259 kts 307°
2026-04-22 17:24 47.62118 16.89167 8008 ft 257 kts 307°
2026-04-22 17:25 47.63089 16.86965 7720 ft 253 kts 306°
2026-04-22 17:25 47.64040 16.84778 7400 ft 250 kts 306°
2026-04-22 17:25 47.64972 16.82620 7094 ft 248 kts 306°
2026-04-22 17:25 47.65885 16.80488 6795 ft 246 kts 306°
2026-04-22 17:26 47.66798 16.78344 6496 ft 245 kts 306°
2026-04-22 17:26 47.67714 16.76226 6163 ft 239 kts 310°
2026-04-22 17:26 47.68999 16.74830 5850 ft 228 kts 345°
2026-04-22 17:26 47.70552 16.74601 5542 ft 223 kts 358°
2026-04-22 17:27 47.71572 16.74494 5438 ft 219 kts 355°
2026-04-22 17:27 47.73554 16.74022 5248 ft 217 kts 349°
2026-04-22 17:27 47.75040 16.73435 5022 ft 223 kts 345°
2026-04-22 17:27 47.76023 16.72957 4879 ft 225 kts 343°
2026-04-22 17:28 47.77512 16.72227 4696 ft 225 kts 344°
2026-04-22 17:28 47.79499 16.71312 4468 ft 225 kts 345°
2026-04-22 17:28 47.80737 16.70788 4323 ft 226 kts 345°
2026-04-22 17:28 47.81761 16.70361 4203 ft 226 kts 346°
2026-04-22 17:29 47.83281 16.69729 4014 ft 227 kts 345°
2026-04-22 17:29 47.84807 16.69099 3852 ft 228 kts 345°
2026-04-22 17:29 47.86326 16.68478 3671 ft 228 kts 346°
2026-04-22 17:29 47.87862 16.67860 3514 ft 228 kts 346°
2026-04-22 17:30 47.89387 16.67240 3331 ft 226 kts 346°
2026-04-22 17:30 47.90904 16.66626 3207 ft 225 kts 346°
2026-04-22 17:30 47.92419 16.66034 3098 ft 225 kts 346°
2026-04-22 17:30 47.93929 16.65441 3020 ft 221 kts 345°
2026-04-22 17:31 47.95391 16.64829 3000 ft 216 kts 344°
2026-04-22 17:31 47.96803 16.64213 3006 ft 209 kts 345°
2026-04-22 17:31 47.98160 16.63634 2891 ft 191 kts 345°
2026-04-22 17:31 47.99382 16.63132 2636 ft 174 kts 346°
2026-04-22 17:32 48.00497 16.62671 2383 ft 158 kts 346°
2026-04-22 17:32 48.01503 16.62235 2190 ft 146 kts 346°
2026-04-22 17:32 48.02479 16.61817 1996 ft 144 kts 346°
2026-04-22 17:32 48.03396 16.61440 1810 ft 131 kts 346°
2026-04-22 17:33 48.04237 16.61088 1626 ft 114 kts 346°
2026-04-22 17:33 48.04944 16.60790 1467 ft 103 kts 345°
2026-04-22 17:33 48.05636 16.60500 1310 ft 104 kts 345°
2026-04-22 17:33 48.06335 16.60207 1158 ft 106 kts 345°
2026-04-22 17:34 48.07048 16.59912 1016 ft 107 kts 344°
2026-04-22 17:34 48.07760 16.59605 869 ft 106 kts 343°
2026-04-22 17:34 48.08472 16.59297 719 ft 105 kts 343°
2026-04-22 17:34 48.09164 16.59005 621 ft 101 kts 344°
2026-04-22 17:35 48.09797 16.58737 609 ft 84 kts 344°
2026-04-22 17:35 48.10282 16.58534 612 ft 63 kts 344°
2026-04-22 17:35 48.10649 16.58378 607 ft 47 kts 345°
2026-04-22 17:35 48.10911 16.58264 618 ft 31 kts 335°
2026-04-22 17:36 48.11012 16.58140 612 ft 14 kts 313°
2026-04-22 17:36 48.11053 16.58041 608 ft 9 kts 295°
2026-04-22 17:36 48.11074 16.57971 616 ft 6 kts 294°
2026-04-22 17:36 48.11090 16.57920 611 ft 5 kts 295°
2026-04-22 17:37 48.11103 16.57882 611 ft 4 kts 296°
2026-04-22 17:37 48.11112 16.57853 606 ft 3 kts 296°
2026-04-22 17:37 48.11123 16.57820 610 ft 7 kts 296°
2026-04-22 17:37 48.11163 16.57698 616 ft 14 kts 296°
2026-04-22 17:38 48.11199 16.57589 607 ft 10 kts 296°
2026-04-22 17:38 48.11233 16.57483 611 ft 12 kts 296°
2026-04-22 17:38 48.11272 16.57364 612 ft 14 kts 296°
2026-04-22 17:38 48.11311 16.57244 608 ft 11 kts 296°
2026-04-22 17:39 48.11343 16.57145 606 ft 10 kts 296°
2026-04-22 17:39 48.11377 16.57041 618 ft 12 kts 296°
2026-04-22 17:39 48.11456 16.56800 609 ft 14 kts 296°
2026-04-22 17:40 48.11500 16.56665 606 ft 15 kts 296°
2026-04-22 17:40 48.11538 16.56545 614 ft 12 kts 296°
2026-04-22 17:40 48.11578 16.56425 613 ft 13 kts 296°
2026-04-22 17:40 48.11619 16.56295 612 ft 14 kts 297°
2026-04-22 17:41 48.11692 16.56270 605 ft 11 kts 25°
2026-04-22 17:41 48.11752 16.56324 611 ft 9 kts 66°
2026-04-22 17:41 48.11731 16.56387 605 ft 8 kts 185°
2026-04-22 17:41 48.11682 16.56357 614 ft 6 kts 205°
2026-04-22 17:42 48.11669 16.56348 605 ft 0 kts 205°